www.pogodaiklimat.ru

Погода и климат >> Архив погоды >> Россия >> Приморский край >> Терней


ПОГОДА в Тернее

  • Прогноз погоды в Тернее
  • Монитор погоды в Тернее
  • Климат города

АРХИВ ПОГОДЫ в Тернее

Время (UTC), дата Ветер
(напр.,м/с)
 
Видим.   Явления Облачность Т
(С)
Тd
(С)
f
(%)
Тe
(С)
Тes
(С)
Комфортность P
(гПа)
Po
(гПа)
Тmin
(С)
Tmax
(С)
R
(мм)
S
(см)
18 18.03 З 4 20 км ясно +0.9 -10.0 44 -4 -4 1018.7 1010.9
21 18.03 З 5 50 км ясно +0.5 -10.0 45 -5 -5 1019.5 1011.7 -2.8
00 19.03 СЗ 4 50 км ясно +6.4 -11.4 27 +4 +8 1019.7 1012.0
03 19.03 ЮВ 3 50 км ясно +5.3 -6.2 43 +3 +12 опасность
простуды
1019.3 1011.6
06 19.03 ЮВ 4 50 км ясно +5.6 -5.5 45 +3 +6 1019.3 1011.6
09 19.03 С 1 50 км ясно +1.0 -8.0 51 -0 -0 1020.1 1012.3 +9.8
12 19.03 ЮЗ 1 20 км ясно -1.2 -12.3 43 -2 -2 1020.5 1012.6
15 19.03 СЗ 4 20 км ясно -1.7 -11.3 48 -7 -7 1020.1 1012.2
18 19.03 СЗ 3
{10}
20 км ясно -1.7 -10.5 51 -6 -6 1020.4 1012.5
21 19.03 З 5 50 км ясно -0.8 -10.1 49 -6 -6 1020.5 1012.6 -2.9
00 20.03 СЗ 5
{10}
50 км 8/0
[Cs]
+7.6 -9.8 28 +5 +7 1019.6 1011.9
03 20.03 В 3 50 км 9/0
[Ac As Cs]
+6.6 -6.2 40 +4 +10 1017.7 1010.1
06 20.03 В 2 50 км 10/0
[Ac und]
+3.7 -3.7 58 +1 +3 1016.2 1008.5
09 20.03 ЮВ 2 50 км 10/8 600 м
[Sc Cs]
+1.3 -3.6 70 -2 -2 1015.3 1007.5 +8.6
12 20.03 ЮВ 3 20 км 10/8 600 м
[Sc As op]
+0.8 -2.6 78 -4 -4 1014.5 1006.7
15 20.03 ЮВ 2 4000 м слабый снег 10/0
[As op]
+0.4 -2.1 83 -3 -3 1012.4 1004.6
18 20.03 СЗ 1 2000 м снег 10/10 300 м
[Frnb Ns]
-0.9 -1.2 98 -3 -3 1009.9 1002.1
21 20.03 СЗ 2 2000 м снег [диам. отлож. мокр. снега 12 мм] 10/10 300 м
[Frnb Ns]
-0.5 -0.7 99 -4 -4 1007.3 999.6 -0.9 7 5
00 21.03 СЗ 2 1000 м ливневой снег [диам. отлож. мокр. снега 28 мм] 10/10 300 м
[Cb cap]
+0.3 +0.1 99 -4 -4 1005.9 998.2
03 21.03 СЗ 2 50 км {ливн. осадки} 10/5 300 м
[St As op]
+4.0 +2.0 87 +1 +2 1004.8 997.2
06 21.03 СЗ 5
{13}
50 км {ливн. осадки} 10/3 600 м
[Sc As op]
+4.2 -0.6 71 -1 -0 1005.2 997.6
09 21.03 В 1
{10}
50 км 10/8 600 м
[Sc As op]
+1.0 -0.5 90 -1 -1 1006.9 999.2 +5.1 11
12 21.03 СВ 1 20 км 10/10 600 м
[Sc]
-0.7 -1.1 97 -3 -3 1008.3 1000.5
15 21.03 ЮВ 2 20 км 3/3 600 м
[Sc]
-2.1 -2.5 97 -6 -6 1008.6 1000.8
18 21.03 штиль 0 20 км 4/4 300 м
[St]
-2.6 -2.9 98 -4 -4 1008.6 1000.8
21 21.03 СЗ 1 50 км 3/0
[Ac lent]
-3.1 -3.3 99 -6 -6 1009.0 1001.2 -3.6 6
00 22.03 З 5 50 км 8/0
[As trans]
+2.6 -8.1 45 -2 -0 1009.4 1001.7
03 22.03 СЗ 4
{10}
50 км 8/8 600 м
[Sc]
+5.0 -8.7 36 +2 +3 1009.3 1001.7
06 22.03 ЮВ 2
{10}
10 км слабый ливневой снег 9/9 300 м
[Cb cap]
+0.1 -2.7 81 -3 -3 1011.3 1003.5
09 22.03 В 2 10 км слабый ливневой снег 10/10 300 м
[Cb cap]
-2.0 -3.5 89 -6 -6 1013.6 1005.8 +5.2 0.4
12 22.03 В 1 4000 м слабый ливневой снег 10/10 300 м
[Cb cap]
-2.5 -4.5 86 -5 -5 1015.7 1007.8
15 22.03 СЗ 1 20 км {ливн. осадки} 8/8 600 м
[Sc]
-3.5 -4.3 94 -6 -6 1016.0 1008.1
18 22.03 З 1 20 км {ливн. осадки} ясно -4.9 -5.3 97 -7 -7 1015.5 1007.6
21 22.03 Ю 1 50 км 3/0
[Ac trans]
-6.0 -6.6 96 -9 -9 1015.6 1007.6 -6.3 0.7 5
00 23.03 СЗ 3 50 км 3/3 600 м
[Sc]
+3.0 -6.0 52 -0 +4 1015.7 1008.0
03 23.03 З 5 50 км 10/4 600 м
[Sc Ac trans Ci fib]
+4.4 -7.2 43 0 +2 1014.9 1007.2
06 23.03 З 6-10
{11}
50 км 4/4 1000 м
[Cu med, cong]
+5.9 -6.9 39 +2 +3 1013.4 1005.8
09 23.03 ЮВ 2
{10}
50 км 10/3 600 м
[Sc Ac trans Ci fib]
-0.4 -3.3 81 -4 -4 1014.7 1006.9 +6.4
12 23.03 СЗ 4 20 км 8/0
[Ac trans]
+0.5 -8.0 53 -4 -4 1016.1 1008.3
15 23.03 СЗ 4 20 км ясно -0.5 -10.4 47 -5 -5 1016.7 1008.9
18 23.03 СЗ 4 20 км ясно -1.2 -11.5 45 -6 -6 1016.7 1008.8
21 23.03 СЗ 4 50 км 3/0
[Ac lent]
-2.0 -10.2 53 -7 -7 1017.3 1009.4 -2.2 0
00 24.03 СЗ 6-11
{12}
50 км 4/0
[Cs]
+3.5 -8.3 42 -1 +1 1017.1 1009.4
03 24.03 ЮВ 4
{11}
50 км 8/8 600 м
[Sc]
+3.8 -9.0 39 0 +2 1016.1 1008.4
06 24.03 В 2 50 км 10/10 600 м
[Sc]
+2.3 -9.6 41 0 0 1016.4 1008.7
09 24.03 С 1 50 км 9/9 600 м
[Sc]
-0.0 -4.2 73 -2 -2 1017.9 1010.1 +6.9
12 24.03 З 2 20 км ясно +0.1 -6.7 60 -3 -3 1018.8 1011.0
15 24.03 СЗ 3 20 км ясно -1.7 -7.3 66 -6 -6 1018.8 1010.9
18 24.03 З 2 20 км ясно -2.7 -7.2 71 -6 -6 1019.2 1011.3
21 24.03 СЗ 4 50 км ясно -3.8 -7.5 75 -10 -10 1020.1 1012.1 -4.3 0
00 25.03 СЗ 4 50 км ясно +4.4 -7.0 43 +1 +5 1019.8 1012.1
03 25.03 СЗ 4 50 км ясно +4.4 -7.0 43 +1 +9 опасность
простуды
1019.8 1012.1
06 25.03 ЮВ 4 50 км 9/9 600 м
[Sc]
+4.5 -7.7 41 +1 +1 1018.0 1010.3
09 25.03 ЮВ 2 50 км 3/3 600 м
[Sc]
0.0 -3.9 75 -3 -3 1018.9 1011.1 +5.8
12 25.03 СЗ 3 20 км ясно -1.6 -5.1 77 -6 -6 1020.0 1012.1

 

Местоположение метеостанции Терней (Приморский край, Россия): широта 45.00 долгота 136.60 высота над уровнем моря 62 м.

В архиве по умолчанию представлена погода в Тернее за последнюю неделю. Архивные данные за месяц целиком и за предыдущие месяцы, начиная с января 2011 года, Вы можете получить, выбрав интересующий диапазон дат из раскрывающегося списка и нажав кнопку "Ввод!".

Внимание! Время в таблицах - всемирное. Для получения местного времени необходимо прибавить поправку, которая в Тернее равна 10 ч.

Смотрите также архив погоды в соседних городах и на ближайших метеорологических станциях:

Погода в Малой Кеме (Приморский край, Россия) (59 км)
Погода в Рудной Пристани (Приморский край, Россия) (94 км)
Погода в Мельничном (Приморский край, Россия) (100 км)
Погода в Богополе (Приморский край, Россия) (126 км)
Погода в Кавалерово (Приморский край, Россия) (152 км)
Погода в Глубинном (Приморский край, Россия) (156 км)
Погода в Охотничем (Приморский край, Россия) (171 км)
Погода в Ольге (Приморский край, Россия) (173 км)
Погода в Малиново (Приморский край, Россия) (194 км)
Погода в Красном Яре (Приморский край, Россия) (198 км)

Пояснения к столбцам:

Ветер - указаны скорость ветра в м/с - средняя за 10 мин, порывы в срок и между сроками (в фигурных скобках) и направление, откуда дует ветер: С - северный, СВ - северо-восточный, В - восточный, ЮВ - юго-восточный, Ю - южный, ЮЗ - юго-западный, З - западный, СЗ - северо-западный.
Видимость - горизонтальная дальность видимости в метрах или километрах. При видимости от 1 до 10 км при отсутствии осадков обычно наблюдается дымка, при ухудшении видимости до 1 км и менее - туман. В сухую погоду видимость может ухудшаться дымом, пылью или мглою.
Явления - указаны атмосферные явления, наблюдавшиеся в срок или в последний час перед сроком; фигурными скобками обозначены явления, наблюдавшиеся между сроками (за 1-3 часа до срока); квадратными скобками обозначены град или гололедные отложения с указанием их диаметра в мм.
Облачность - указаны через наклонную черту общая и нижняя облачность в баллах и высота нижней границы облаков в метрах; квадратными скобками обозначены формы облаков: Ci - перистые, Cs - перисто-слоистые, Cc - перисто-кучевые, Ac - высококучевые, As - высокослоистые, Sc - слоисто-кучевые, Ns - слоисто-дождевые, Cu - кучевые, Cb - кучево-дождевые. Подробнее классификацию облаков см. в Атласе облаков (PDF).
T - Температура воздуха - температура, измеренная на высоте 2 м над землей.
Td - Температура точки росы - температура, при понижении до которой содержащийся в воздухе водяной пар достигнет насыщения.
f - Относительная влажность воздуха - влажноcть воздуха, измеренная на высоте 2 м над землей.
Te - Эффективная температура - температура, которую ощущает одетый по сезону человек в тени. Характеристика душности погоды. При расчете учитывается влияние влажности воздуха и скорости ветра на теплоощущения человека.
Tes - Эффективная температура на солнце - температура, которую ощущает человек, с поправкой на солнечный нагрев. Характеристика знойности погоды. Зависит от высоты солнца над горизонтом, облачности и скорости ветра. Ночью, в пасмурную погоду, а также при ветре 12 м/с и более поправка равна нулю.
P - Атмосферное давление - приведенное к уровню моря атмосферное давление.
Po - Атмосферное давление - измеренное на уровне метеостанции атмосферное давление.
Tmin - Минимальная температура - минимум температуры воздуха на высоте 2 м над землей.
Tmax - Максимальная температура - максимум температуры воздуха на высоте 2 м над землей.
R - Количество осадков - Количество выпавших осадков, мм. При наведении курсора мыши на число - период времени, за который выпало указанное количество осадков.
S - Снежный покров - Высота снежного покрова, см. При наведении курсора мыши на число - состояние снежного покрова и степень покрытия местности в баллах.